GW4912 Weather Reports


time (UTC)temp
F
wind
direction
speed
knots
gust
knots
rain 1hr
in
rain 24hr
in
rain mn
in
humidity
%
barometer
mb
20260509034846 52 349 2.6 4.3 0.09 0.14 0.14 96 1009.0
20260509034344 52 359 1.7 3.5 0.00 0.13 0.13 96 1009.1
20260509033840 52 12 2.6 2.6 0.00 0.13 0.13 96 1009.0
20260509033338 52 6 2.6 2.6 0.00 0.13 0.13 95 1009.0
20260509032834 52 68 0.9 3.5 0.05 0.13 0.13 95 1009.1
20260509032332 53 35 3.5 4.3 0.05 0.12 0.12 95 1009.3
20260509031830 53 50 1.7 4.3 0.02 0.12 0.12 95 1009.4
20260509031326 53 29 2.6 3.5 0.00 0.11 0.11 95 1009.3
20260509030824 53 20 1.7 4.3 0.00 0.11 0.11 95 1009.3
20260509030322 53 40 5.2 7.8 0.00 0.11 0.11 95 1009.3
20260509025818 52 29 4.3 5.2 0.00 0.11 0.11 95 1009.3
20260509025314 52 8 3.5 5.2 0.00 0.11 0.11 95 1009.4
20260509024810 52 35 2.6 5.2 0.00 0.11 0.11 96 1009.5
20260509024306 52 327 1.7 3.5 0.00 0.11 0.11 96 1009.6
20260509023803 52 17 1.7 7.0 0.00 0.11 0.11 96 1009.5
20260509023300 52 38 1.7 4.3 0.00 0.11 0.11 96 1009.5
20260509022756 52 308 1.7 3.5 0.00 0.11 0.11 97 1009.4
20260509022254 52 36 3.5 3.5 0.00 0.11 0.11 97 1009.3
20260509021751 52 318 1.7 1.7 0.00 0.11 0.11 97 1009.2
20260509021248 52 84 2.6 3.5 0.00 0.11 0.11 97 1009.5
20260509020746 52 344 1.7 2.6 0.00 0.11 0.11 97 1009.4
20260509020243 52 29 2.6 3.5 0.00 0.11 0.11 97 1009.2
20260509015741 52 298 0.0 2.6 0.00 0.11 0.11 97 1009.1
20260509015239 51 260 1.7 3.5 0.00 0.11 0.11 97 1009.3
20260509014735 52 331 1.7 3.5 0.00 0.11 0.11 97 1009.2
20260509014232 52 307 1.7 3.5 0.00 0.11 0.11 97 1009.2
20260509013729 52 327 0.0 2.6 0.00 0.11 0.11 97 1009.3
20260509013224 52 63 1.7 3.5 0.00 0.11 0.11 97 1009.2
20260509012721 52 11 2.6 5.2 0.00 0.11 0.11 97 1009.3
20260509012218 52 347 1.7 5.2 0.00 0.11 0.11 97 1009.4
20260509011716 52 6 0.0 3.5 0.00 0.11 0.11 97 1009.4
20260509011213 52 356 0.0 3.5 0.00 0.11 0.11 97 1009.2
20260509010711 51 259 2.6 3.5 0.00 0.11 0.11 97 1009.3
20260509010207 51 19 1.7 3.5 0.00 0.11 0.11 97 1008.9
20260509005704 51 347 0.9 2.6 0.00 0.11 0.11 97 1009.3
20260509005201 51 238 1.7 3.5 0.00 0.11 0.11 97 1009.3
20260509004656 51 328 0.0 2.6 0.00 0.11 0.11 97 1009.3
20260509004154 51 59 2.6 4.3 0.00 0.11 0.11 97 1009.1
20260509003652 51 248 0.9 3.5 0.00 0.11 0.11 96 1009.3
20260509003149 51 283 0.0 1.7 0.00 0.11 0.11 96 1009.2
20260509002646 51 12 2.6 5.2 0.00 0.11 0.11 97 1009.3
20260509002143 51 32 3.5 4.3 0.00 0.11 0.11 97 1009.4
20260509001641 51 168 1.7 4.3 0.00 0.11 0.11 97 1009.4
20260509001136 51 16 1.7 2.6 0.00 0.11 0.11 96 1009.3
20260509000635 51 302 0.9 3.5 0.02 0.11 0.11 96 1009.3
20260509000131 51 244 3.5 3.5 0.00 0.11 0.11 96 1009.3
20260508235629 51 345 1.7 2.6 0.02 0.11 0.11 96 1009.3
20260508235125 51 63 2.6 4.3 0.02 0.11 0.11 96 1009.3
20260508234623 51 347 1.7 3.5 0.02 0.11 0.11 96 1009.3
20260508234119 51 271 1.7 3.5 0.02 0.11 0.11 96 1009.4
20260508233619 51 37 0.0 3.5 0.00 0.10 0.10 96 1009.5
20260508233116 51 57 0.0 1.7 0.02 0.10 0.10 96 1009.3
20260508232613 51 351 0.9 2.6 0.00 0.10 0.10 96 1009.3
20260508232109 51 0 0.9 2.6 0.02 0.10 0.10 95 1009.0
20260508231607 52 356 0.9 2.6 0.02 0.10 0.10 95 1009.2
20260508231104 51 68 0.0 4.3 0.02 0.09 0.09 95 1009.2
20260508230600 51 311 0.0 1.7 0.07 0.09 0.09 95 1009.1
20260508230057 51 3 0.9 2.6 0.07 0.09 0.09 95 1009.1
20260508225555 51 276 0.0 1.7 0.05 0.08 0.08 95 1009.3
20260508225051 51 81 0.0 3.5 0.07 0.08 0.08 95 1009.4
20260508224549 52 139 0.0 3.5 0.05 0.07 0.07 94 1009.4
20260508224046 52 13 0.9 1.7 0.02 0.07 0.07 94 1009.6
20260508223544 52 54 0.0 1.7 0.07 0.07 0.07 94 1009.6
20260508223041 52 320 0.0 4.3 0.05 0.06 0.06 94 1009.8
20260508222538 52 57 0.9 4.3 0.07 0.06 0.06 93 1009.6
20260508222035 52 262 1.7 1.7 0.09 0.05 0.05 92 1009.4
20260508221531 52 70 1.7 2.6 0.05 0.04 0.04 92 1009.6
20260508221027 52 11 0.9 3.5 0.00 0.03 0.03 92 1009.4
20260508220524 52 46 2.6 4.3 0.05 0.03 0.03 91 1009.3
20260508220020 52 27 2.6 5.2 0.07 0.03 0.03 91 1009.3
20260508215517 52 35 0.0 3.5 0.05 0.02 0.02 90 1009.4
20260508215014 53 33 3.5 3.5 0.05 0.02 0.02 89 1009.5
20260508214511 53 31 2.6 4.3 0.07 0.02 0.02 88 1009.5
20260508214007 53 33 2.6 4.3 0.05 0.01 0.01 87 1009.6
20260508213505 53 11 1.7 5.2 0.02 0.00 0.00 86 1009.5
20260508213000 53 333 1.7 3.5 0.00 0.00 0.00 85 1009.4
20260508212457 53 32 2.6 3.5 0.00 0.00 0.00 85 1009.3
20260508211953 53 56 2.6 3.5 0.00 0.00 0.00 86 1009.2
20260508211449 53 39 1.7 3.5 0.00 0.00 0.00 85 1009.1
20260508210946 53 57 1.7 7.0 0.00 0.00 0.00 84 1009.1
20260508210443 53 20 3.5 5.2 0.00 0.00 0.00 83 1009.4
20260508205939 54 18 5.2 5.2 0.00 0.00 0.00 83 1009.4
20260508205436 54 355 1.7 6.1 0.00 0.00 0.00 83 1009.8
20260508204932 54 27 1.7 5.2 0.00 0.00 0.00 83 1009.5
20260508204430 53 4 1.7 3.5 0.00 0.00 0.00 83 1009.4
20260508203925 54 5 2.6 5.2 0.00 0.00 0.00 84 1009.8
20260508203422 54 8 2.6 8.7 0.00 0.00 0.00 84 1010.0
20260508202917 54 35 4.3 8.7 0.00 0.00 0.00 83 1009.8
20260508202415 54 301 3.5 8.7 0.00 0.00 0.00 84 1009.9
20260508201912 54 12 1.7 5.2 0.00 0.00 0.00 84 1010.0
20260508201409 54 27 5.2 5.2 0.00 0.00 0.00 84 1010.3
20260508200905 54 29 7.0 8.7 0.00 0.00 0.00 83 1010.1
20260508200402 54 15 2.6 7.8 0.00 0.00 0.00 82 1010.3
20260508195857 55 339 3.5 7.8 0.00 0.00 0.00 81 1010.5
20260508195354 55 24 7.0 11.3 0.00 0.00 0.00 78 1010.7
20260508194851 56 296 4.3 7.0 0.00 0.00 0.00 77 1010.3
20260508194348 56 26 6.1 8.7 0.00 0.00 0.00 76 1010.7
20260508193845 57 323 3.5 8.7 0.00 0.00 0.00 75 1010.4
20260508193342 58 27 4.3 7.8 0.00 0.00 0.00 75 1010.4
20260508192838 58 276 3.5 5.2 0.00 0.00 0.00 73 1010.3
20260508192335 58 357 4.3 7.8 0.00 0.00 0.00 72 1010.5
20260508191832 59 339 1.7 7.8 0.00 0.00 0.00 73 1010.7
20260508191329 60 285 3.5 5.2 0.00 0.00 0.00 70 1010.7
20260508190826 60 22 5.2 6.1 0.00 0.00 0.00 70 1010.5
20260508190323 60 12 4.3 7.0 0.00 0.00 0.00 70 1010.7
20260508185819 60 4 2.6 6.1 0.00 0.00 0.00 69 1010.3
20260508185317 60 20 0.0 3.5 0.00 0.00 0.00 69 1010.7
20260508184814 60 13 4.3 5.2 0.00 0.00 0.00 70 1010.8
20260508184311 61 5 6.1 8.7 0.00 0.00 0.00 68 1010.8
20260508183808 59 5 4.3 8.7 0.00 0.00 0.00 70 1010.9
20260508183305 60 5 2.6 6.1 0.00 0.00 0.00 68 1010.9
20260508182800 61 11 8.7 9.6 0.00 0.00 0.00 67 1010.9
20260508182257 61 37 3.5 10.4 0.00 0.00 0.00 70 1010.9
20260508181753 60 41 3.5 5.2 0.00 0.00 0.00 69 1011.0
20260508181250 60 32 5.2 8.7 0.00 0.00 0.00 70 1011.1
20260508180747 60 35 6.1 7.0 0.00 0.00 0.00 70 1011.2
20260508180244 58 24 6.1 6.1 0.00 0.00 0.00 71 1011.1
20260508175740 59 12 5.2 9.6 0.00 0.00 0.00 69 1011.4
20260508175237 59 9 7.0 7.8 0.00 0.00 0.00 72 1011.4
20260508174735 59 343 1.7 7.8 0.00 0.00 0.00 70 1011.3
20260508174232 60 17 3.5 8.7 0.00 0.00 0.00 72 1011.6
20260508173728 59 22 5.2 7.0 0.00 0.00 0.00 71 1011.8
20260508173224 59 359 5.2 8.7 0.00 0.00 0.00 71 1011.6
20260508172721 58 32 6.1 7.0 0.00 0.00 0.00 71 1011.8
20260508172218 59 0 4.3 8.7 0.00 0.00 0.00 74 1011.5
20260508171715 58 1 3.5 9.6 0.00 0.00 0.00 70 1011.7
20260508171211 58 320 2.6 5.2 0.00 0.00 0.00 70 1012.0
20260508170708 58 14 7.0 7.0 0.00 0.00 0.00 69 1011.7
20260508170206 58 294 0.9 4.3 0.00 0.00 0.00 70 1011.8
20260508165702 58 316 1.7 3.5 0.00 0.00 0.00 70 1012.0
20260508165200 58 317 1.7 2.6 0.00 0.00 0.00 69 1012.0
20260508164656 58 348 4.3 7.8 0.00 0.00 0.00 68 1012.1
20260508164152 58 292 3.5 8.7 0.00 0.00 0.00 68 1012.0
20260508163651 60 337 5.2 8.7 0.00 0.00 0.00 67 1012.1
20260508163148 59 334 3.5 7.8 0.00 0.00 0.00 68 1011.8
20260508162643 58 3 3.5 7.0 0.00 0.00 0.00 68 1012.1
20260508162140 59 356 2.6 7.0 0.00 0.00 0.00 66 1012.1
20260508161637 60 16 2.6 3.5 0.00 0.00 0.00 67 1012.2
20260508161135 60 8 2.6 2.6 0.00 0.00 0.00 66 1011.8
20260508160633 59 119 1.7 4.3 0.00 0.00 0.00 68 1012.2
20260508160130 59 340 4.3 4.3 0.00 0.00 0.00 68 1012.3
20260508155627 59 89 2.6 3.5 0.00 0.00 0.00 69 1012.1
20260508155124 58 299 1.7 5.2 0.00 0.00 0.00 69 1012.1
20260508154621 58 338 3.5 7.8 0.00 0.00 0.00 67 1012.4
20260508154118 59 353 2.6 6.1 0.00 0.00 0.00 68 1012.2
20260508153615 58 345 1.7 3.5 0.00 0.00 0.00 69 1012.2
20260508153111 57 319 1.7 2.6 0.00 0.00 0.00 70 1012.1
20260508152608 56 318 1.7 6.1 0.00 0.00 0.00 69 1012.2
20260508152103 57 24 1.7 6.1 0.00 0.00 0.00 71 1012.1
20260508151601 57 4 2.6 6.1 0.00 0.00 0.00 69 1012.0
20260508151058 59 325 2.6 4.3 0.00 0.00 0.00 67 1012.1
20260508150555 58 344 1.7 4.3 0.00 0.00 0.00 68 1012.0
20260508150050 58 21 1.7 4.3 0.00 0.00 0.00 67 1012.1
20260508145547 59 351 0.0 2.6 0.00 0.00 0.00 67 1012.4
20260508145044 59 319 1.7 3.5 0.00 0.00 0.00 68 1012.3
20260508144542 58 10 1.7 4.3 0.00 0.00 0.00 67 1012.2
20260508144039 57 356 1.7 5.2 0.00 0.00 0.00 68 1012.3
20260508143536 59 233 0.9 1.7 0.00 0.00 0.00 64 1012.2
20260508143032 59 12 1.7 2.6 0.00 0.00 0.00 65 1012.4
20260508142530 59 48 1.7 2.6 0.00 0.00 0.00 67 1012.2
20260508142026 59 318 1.7 2.6 0.00 0.00 0.00 66 1012.4
20260508141522 56 334 1.7 4.3 0.00 0.00 0.00 67 1012.3
20260508141020 57 350 1.7 5.2 0.00 0.00 0.00 67 1012.5
20260508140518 56 17 1.7 3.5 0.00 0.00 0.00 68 1012.4
20260508140014 56 34 0.0 4.3 0.00 0.00 0.00 68 1012.5
20260508135509 57 138 1.7 4.3 0.00 0.00 0.00 66 1012.5
20260508135006 57 43 1.7 5.2 0.00 0.00 0.00 66 1012.5
20260508134502 56 70 0.0 1.7 0.00 0.00 0.00 67 1012.2
20260508134000 56 112 3.5 3.5 0.00 0.00 0.00 66 1012.5
20260508133457 57 119 0.9 2.6 0.00 0.00 0.00 67 1012.7
20260508132953 56 330 0.0 2.6 0.00 0.00 0.00 70 1012.5
20260508132452 55 328 2.6 4.3 0.00 0.00 0.00 69 1012.5
20260508131948 54 67 1.7 3.5 0.00 0.00 0.00 71 1012.5
20260508131443 54 336 1.7 3.5 0.00 0.00 0.00 71 1012.6
20260508130940 53 340 1.7 3.5 0.00 0.00 0.00 71 1012.4
20260508130437 53 31 1.7 3.5 0.00 0.00 0.00 72 1012.6
20260508125933 54 20 4.3 5.2 0.00 0.00 0.00 70 1012.6
20260508125429 53 318 3.5 6.1 0.00 0.00 0.00 69 1012.4
20260508124927 52 344 0.0 2.6 0.00 0.00 0.00 71 1012.6
20260508124425 51 14 2.6 3.5 0.00 0.00 0.00 73 1012.4
20260508123922 51 3 1.7 3.5 0.00 0.00 0.00 73 1012.5
20260508123421 51 35 0.0 3.5 0.00 0.00 0.00 73 1012.5
20260508122917 51 317 3.5 3.5 0.00 0.00 0.00 73 1012.6
20260508122414 50 23 2.6 3.5 0.00 0.00 0.00 74 1012.6
20260508121911 50 13 2.6 5.2 0.00 0.00 0.00 75 1012.4
20260508121409 50 23 3.5 5.2 0.00 0.00 0.00 76 1012.3
20260508120906 50 345 0.9 3.5 0.00 0.00 0.00 77 1012.4
20260508120404 50 354 2.6 4.3 0.00 0.00 0.00 77 1012.5
20260508115901 49 23 2.6 4.3 0.00 0.00 0.00 79 1012.2
20260508115359 49 42 2.6 3.5 0.00 0.00 0.00 80 1012.2
20260508114855 49 50 3.5 4.3 0.00 0.00 0.00 81 1012.0
20260508114352 49 16 2.6 3.5 0.00 0.00 0.00 80 1012.1
20260508113849 49 7 1.7 3.5 0.00 0.00 0.00 80 1011.8
20260508113347 49 10 2.6 3.5 0.00 0.00 0.00 80 1012.0
20260508112844 48 60 1.7 3.5 0.00 0.00 0.00 80 1012.1
20260508112341 48 40 1.7 2.6 0.00 0.00 0.00 81 1011.8
20260508111837 48 23 1.7 2.6 0.00 0.00 0.00 80 1011.8
20260508111334 48 34 1.7 3.5 0.00 0.00 0.00 79 1011.6
20260508110831 49 22 2.6 3.5 0.00 0.00 0.00 79 1011.6
20260508110329 49 357 2.6 3.5 0.00 0.00 0.00 78 1011.8
20260508105829 49 8 3.5 4.3 0.00 0.00 0.00 77 1011.4
20260508105326 49 17 2.6 3.5 0.00 0.00 0.00 76 1011.7
20260508104822 49 10 1.7 3.5 0.00 0.00 0.00 76 1011.8
20260508104319 49 8 2.6 3.5 0.00 0.00 0.00 75 1011.5
20260508103817 49 359 3.5 4.3 0.00 0.00 0.00 75 1011.7
20260508103313 49 356 3.5 5.2 0.00 0.00 0.00 75 1011.4
20260508102811 48 108 2.6 5.2 0.00 0.00 0.00 76 1011.5
20260508102309 48 341 3.5 5.2 0.00 0.00 0.00 76 1011.5
20260508101806 48 14 3.5 5.2 0.00 0.00 0.00 76 1011.5
20260508101303 48 12 3.5 7.8 0.00 0.00 0.00 77 1011.4
20260508100801 47 357 4.3 5.2 0.00 0.00 0.00 80 1011.6
20260508100259 47 24 2.6 5.2 0.00 0.00 0.00 82 1011.6
20260508095754 47 9 2.6 4.3 0.00 0.00 0.00 83 1011.7
20260508095252 47 33 3.5 5.2 0.00 0.00 0.00 82 1011.7
20260508094749 46 12 2.6 4.3 0.00 0.00 0.00 83 1011.7
20260508094246 46 17 1.7 3.5 0.00 0.00 0.00 84 1011.5
20260508093743 45 45 2.6 3.5 0.00 0.00 0.00 85 1011.5
20260508093241 45 40 0.9 2.6 0.00 0.00 0.00 85 1011.6
20260508092737 45 34 1.7 1.7 0.00 0.00 0.00 85 1011.6
20260508092236 45 46 2.6 3.5 0.00 0.00 0.00 85 1011.8
20260508091733 45 350 1.7 3.5 0.00 0.00 0.00 84 1011.6
20260508091230 45 56 1.7 2.6 0.00 0.00 0.00 84 1011.8
20260508090728 45 18 1.7 4.3 0.00 0.00 0.00 84 1011.7
20260508090225 45 31 1.7 3.5 0.00 0.00 0.00 84 1011.8
20260508085721 45 23 1.7 4.3 0.00 0.00 0.00 84 1011.8
20260508085219 45 16 1.7 4.3 0.00 0.00 0.00 84 1011.8
20260508084714 45 27 2.6 4.3 0.00 0.00 0.00 84 1011.9
20260508084212 46 27 3.5 5.2 0.00 0.00 0.00 83 1011.9
20260508083709 46 70 2.6 5.2 0.00 0.00 0.00 83 1011.7
20260508083207 46 16 1.7 5.2 0.00 0.00 0.00 82 1011.9
20260508082701 46 40 2.6 6.1 0.00 0.00 0.00 82 1012.0
20260508082159 46 37 2.6 5.2 0.00 0.00 0.00 82 1012.0
20260508081657 46 30 2.6 4.3 0.00 0.00 0.00 83 1012.0
20260508081153 46 16 2.6 4.3 0.00 0.00 0.00 83 1012.1
20260508080650 46 27 3.5 3.5 0.00 0.00 0.00 83 1012.0
20260508080149 46 42 2.6 5.2 0.00 0.00 0.00 83 1012.0
20260508075644 46 40 2.6 3.5 0.00 0.00 0.00 83 1012.1
20260508075142 46 14 2.6 3.5 0.00 0.00 0.00 82 1011.9
20260508074639 46 21 2.6 5.2 0.00 0.00 0.00 82 1012.1
20260508074136 46 16 1.7 4.3 0.00 0.00 0.00 82 1011.9
20260508073633 46 17 2.6 5.2 0.00 0.00 0.00 81 1012.2
20260508073131 46 20 5.2 5.2 0.00 0.00 0.00 81 1012.1
20260508072627 46 37 2.6 7.0 0.00 0.00 0.00 81 1012.2
20260508072124 46 23 3.5 5.2 0.00 0.00 0.00 80 1012.3
20260508071621 47 332 1.7 4.3 0.00 0.00 0.00 79 1012.2
20260508071120 47 348 2.6 5.2 0.00 0.00 0.00 78 1012.1
20260508070617 48 341 1.7 6.1 0.00 0.00 0.00 76 1012.2
20260508070115 48 339 3.5 7.8 0.00 0.00 0.00 76 1012.4
20260508065612 48 34 3.5 6.1 0.00 0.00 0.00 75 1012.4
20260508065110 48 7 5.2 7.8 0.00 0.00 0.00 74 1012.2
20260508064607 49 304 3.5 8.7 0.00 0.00 0.00 73 1012.2
20260508064105 48 332 3.5 8.7 0.00 0.00 0.00 73 1012.1
20260508063603 48 358 2.6 6.1 0.00 0.00 0.00 72 1012.3
20260508063101 48 318 1.7 6.1 0.00 0.00 0.00 72 1012.3
20260508062558 48 359 3.5 5.2 0.00 0.00 0.00 73 1012.3
20260508062054 48 12 0.0 4.3 0.00 0.00 0.00 72 1012.2
20260508061552 48 41 4.3 6.1 0.00 0.00 0.00 72 1012.2
20260508061048 48 31 1.7 7.0 0.00 0.00 0.00 72 1012.3
20260508060545 48 50 3.5 3.5 0.00 0.00 0.00 73 1012.2
20260508060043 48 23 4.3 4.3 0.00 0.00 0.00 73 1012.3
20260508055538 48 47 1.7 3.5 0.00 0.00 0.00 73 1012.4
20260508055035 48 33 4.3 5.2 0.00 0.00 0.00 73 1012.4
20260508054532 48 50 1.7 4.3 0.00 0.00 0.00 72 1012.3
20260508054029 48 345 2.6 2.6 0.00 0.00 0.00 73 1012.6
20260508053526 48 61 3.5 3.5 0.00 0.00 0.00 72 1012.6
20260508053025 48 48 1.7 2.6 0.00 0.00 0.00 72 1012.6
20260508052521 48 308 1.7 3.5 0.00 0.00 0.00 72 1012.6
20260508052018 48 68 0.0 1.7 0.00 0.00 0.00 72 1012.8
20260508051514 48 329 0.0 1.7 0.00 0.00 0.00 72 1012.7
20260508051009 47 9 1.7 2.6 0.00 0.00 0.00 73 1012.9
20260508050506 48 57 0.9 2.6 0.00 0.00 0.00 73 1012.9
20260508050003 48 21 1.7 2.6 0.00 0.00 0.00 72 1012.9
20260508045500 48 38 0.9 2.6 0.00 0.00 0.00 71 1012.8
20260508044957 48 12 0.9 2.6 0.00 0.00 0.00 71 1012.8
20260508044454 48 343 1.7 3.5 0.00 0.00 0.00 71 1012.8
20260508043949 48 29 2.6 4.3 0.00 0.00 0.00 70 1012.7
20260508043447 48 54 2.6 3.5 0.00 0.00 0.00 70 1012.7
20260508042943 48 30 1.7 3.5 0.00 0.00 0.00 70 1012.8
20260508042441 48 13 2.6 4.3 0.00 0.00 0.00 70 1012.8
20260508041938 48 49 1.7 3.5 0.00 0.00 0.00 70 1012.9
20260508041434 48 22 1.7 3.5 0.00 0.00 0.00 69 1012.9
20260508040931 49 34 3.5 3.5 0.00 0.00 0.00 68 1012.8
20260508040429 49 23 2.6 5.2 0.00 0.00 0.00 68 1012.8
20260508035926 49 344 1.7 4.3 0.00 0.00 0.00 68 1012.8
20260508035423 49 353 3.5 5.2 0.00 0.00 0.00 68 1012.8